Starlink 31634

operational
NORAD ID: 59330 Int'l Des: 2024-057 Owner: SPXS Country: US Constellation: starlink
LEOCIRCULAR

Über Starlink 31634

Beschreibung wird geladen...

Live-Position

3D-Globus wird geladen...

Nächste Überflüge

Höhenverlauf

Altitude vs Time

uPlot chart will show altitude changes over time

Zweizeiliger Elementsatz

1 59330U 24057L 25306.36352822 .00000869 00000-0 41113-4 0 9992
2 59330 43.0001 186.3612 0001164 277.1748 82.8971 15.27580681 90361
Epoch: 2. Nov. 2025 • Age: 37 hours

Aktueller Status

Höhe 482.6 km
Geschwindigkeit 7.63 km/s
Subsatellitenpunkt 6.19°N, 15.78°W
Startdatum 25. März 2024
Alter 1.6 years
Typ internet

Technische Details

Klassifizierung Payload
Masse 730.00 kg
Trockenmasse 700.00 kg
Gesamtmasse 730.00 kg
Länge 0.30 m
Durchmesser 4.10 m
Spannweite 29.00 m
Form Box + pan
Hersteller SPXS
Bus-Typ Starlink V2M
Phasenstatus In Orbit
Besitzer/Staat SPXS/US

Große Konstellationen

Loading constellations...